CAPE
596 689 676 857 900 79 10 35 244 216 257 242 301 86 66 124 99 213 1109 1265 1144 1738 2227 2140 2598 2515 2014 2334 2396 2508 2499 2224 2298 2321 1998 1879 1929 1609 1767 1878 1820 1534 1591 1340 909 1417 1243 1182 970
441 829 752 1242 678 0 0 33 142 239 344 228 185 188 330 417 904 1235 1185 1414 1336 1872 2239 1986 2599 2631 2587 2560 2219 2430 2068 1702 1745 2123 2090 2051 1857 1702 1683 1632 1581 1445 1452 1109 825 1328 686 548 1015
568 771 907 1300 929 15 3 48 134 389 227 303 343 487 493 733 993 1029 1343 1432 1698 2037 1988 2310 3038 2639 2575 2676 2735 2514 2206 1889 1652 1820 2075 2032 1841 1801 1804 1680 1520 1592 1561 806 587 906 1096 719 1253
613 877 1122 1067 145 301 21 84 189 317 344 361 440 489 737 898 919 1068 1574 1669 1954 2072 1789 2989 3546 3160 2766 2681 2674 2753 2448 2208 1775 1894 1858 1817 1828 1636 1740 1672 1550 1660 1602 868 798 1344 921 1211 873
457 625 355 25 11 47 18 127 217 227 215 440 262 506 874 812 937 1447 1583 1547 1803 2044 1832 2681 3525 3599 3214 2842 2666 2752 2759 2283 1946 1935 2309 1943 1952 1706 1906 1754 1808 1729 1451 917 1197 1278 893 1159 1103
709 397 228 102 0 0 47 184 231 201 278 542 366 589 768 1083 1372 1630 1648 1482 1425 1771 1710 2215 3202 3575 3267 2586 2382 2280 2454 2327 2130 2099 1964 1918 1895 1596 1880 1818 1581 1642 1345 893 1148 1334 1411 1303 1214
1469 1236 671 364 2 0 9 116 239 242 345 337 302 320 837 1149 1375 1691 1792 1591 1455 1640 1719 2265 2642 2888 2981 2460 2303 2301 2603 2432 2330 2358 2376 2134 1926 1719 1753 1721 1580 1657 1596 945 1218 1421 1378 1320 1159
1390 1263 629 23 0 0 0 72 125 232 340 500 396 196 512 1044 1512 1581 1565 1536 1554 1607 1726 2152 2616 2683 2540 2470 2831 2817 2994 2647 2362 2397 2204 2181 2166 1979 1756 1629 1811 1655 1339 904 843 1237 1176 1191 1053
1493 1051 192 0 0 0 0 0 18 244 533 570 495 399 422 1083 1378 1191 1202 1283 1462 1530 1701 1875 2157 2620 2673 2385 2315 2839 2657 2465 2381 2621 2391 2310 1844 1869 1814 1682 1503 1730 1585 1120 963 879 1157 1038 967
1366 938 285 151 11 0 0 0 10 263 537 686 709 514 820 1173 1054 889 891 824 1033 1231 1433 1627 1815 2004 2289 2064 2506 2570 2319 1956 2178 2443 1846 1925 1935 1852 1487 1741 1567 1503 1590 1539 1359 1597 1288 1423 565
1133 762 563 373 139 13 0 0 3 44 409 527 750 741 894 985 962 753 522 479 728 977 1234 1473 1718 1924 1945 1844 2317 2137 2255 2480 2727 2322 2084 2186 2169 1931 1872 1880 1767 1783 1487 1565 1576 1463 1092 488 632
703 790 716 243 0 0 0 0 0 35 69 395 664 853 914 985 952 917 543 394 489 747 1035 1216 1436 1830 1863 1774 1807 2053 1921 2337 2538 2135 2423 2417 2108 2063 1904 1859 1595 1784 2232 1671 1799 1070 1469 1325 1125
512 325 2 40 0 0 0 0 0 51 57 205 580 916 839 910 958 990 769 341 405 546 753 1043 1324 1502 1523 1814 1741 2063 1919 1795 1895 1987 2228 2026 2101 1952 1472 1746 1129 1278 1194 2213 2095 1823 1258 1225 1369
0 0 0 0 0 0 0 0 9 47 38 238 692 960 852 788 927 1034 931 720 537 620 649 861 1243 1374 1427 1719 1975 1865 1899 1649 1810 1734 1909 2146 1563 1631 1731 1051 943 1246 1386 1657 1990 1938 1670 1316 927
0 0 0 0 0 0 0 0 0 13 236 275 689 912 955 855 908 1056 1057 999 936 876 811 836 1095 1242 1305 1487 1544 1445 1359 1569 1324 1473 1884 1801 1689 1813 2049 1710 1326 888 1515 1932 2077 2040 1767 1250 952
0 0 0 0 0 0 2 0 0 0 246 172 509 653 881 1056 977 1057 1116 1126 1059 1077 1065 952 749 996 1192 1247 1421 1229 1234 1285 1377 1260 1509 1621 1118 1527 1895 1535 1255 1212 1516 1960 1910 2271 1547 1128 1137
0 0 0 0 0 0 0 0 0 0 0 0 60 633 730 889 1064 1230 1245 1200 1203 1224 1368 1253 1075 1027 1172 1236 1156 1272 1502 1506 1531 1596 1482 1520 1487 1574 1627 1148 988 1540 1272 1432 1502 2088 2015 1193 1220
0 0 0 0 0 0 0 0 0 0 0 0 12 745 720 737 776 1019 1281 1305 1356 1421 1543 1601 1518 1668 1446 1289 1392 1276 1508 1788 1963 2018 1811 1725 1551 1461 1508 1232 1243 1161 1004 1149 1243 1393 1331 1562 1859
0 0 0 0 0 0 0 0 0 0 0 0 3 731 832 843 780 693 985 1235 1421 1594 1713 2054 2074 2316 1814 1490 1454 1530 1599 1700 1897 2087 1731 1756 1699 1303 1137 1166 955 773 572 700 1147 1515 1449 1203 1253
0 0 0 0 0 0 0 0 0 0 0 0 0 563 974 859 944 857 819 1008 1210 1533 2144 2086 2282 2453 2107 1838 2036 1681 1721 1773 1888 1871 1665 1816 1731 1624 1255 1130 1010 855 555 768 816 1034 1176 1211 1538
0 0 0 0 0 0 0 0 0 0 0 0 0 125 644 927 1018 1069 1158 1293 1054 1522 2067 2343 2620 2533 2525 2460 1999 1689 1624 1370 1400 1611 1657 1468 1289 1282 1492 1552 1357 1214 1088 1039 985 863 1088 1076 1186
0 0 9 8 31 0 0 0 0 0 0 0 0 8 524 844 1009 1166 1212 1198 1523 1468 1224 2008 2393 2647 2285 2669 2234 2406 1794 1709 1775 2130 1712 1459 1020 1073 960 1051 984 1121 1225 1217 1305 1061 1420 1496 1188
44 133 96 97 58 11 0 0 0 0 0 0 0 0 0 433 904 1016 1131 1546 1556 1274 1368 1788 2452 2594 2652 2411 2564 2280 2074 2443 1735 1497 1723 1803 1657 1508 1450 1395 1496 1241 1241 1128 962 603 725 1343 1101
51 43 54 100 84 41 0 0 0 0 0 0 0 0 0 0 32 765 1032 1349 1639 1516 1438 1953 2379 2587 2734 2386 2365 2588 2413 2010 1725 1691 1569 1148 1013 1571 1900 1902 1729 1696 1487 1182 844 818 728 857 804
66 57 51 70 62 17 0 0 0 0 0 0 0 0 0 0 0 0 739 1488 1721 1636 1800 1955 2565 2657 2431 2291 2379 2254 2286 2382 2017 1992 1593 851 697 1345 1986 1473 1314 1213 1361 1153 878 812 837 905 787
61 55 63 82 59 25 0 0 0 0 0 0 0 0 0 0 0 0 23 1060 1417 1640 2051 2029 2468 2660 2515 2466 2478 2454 2436 2145 1969 1993 836 800 639 1087 1884 1544 1365 1369 1202 1002 861 752 784 867 565
1 0 0 18 13 39 0 0 0 0 0 0 49 1227 1134 268 1 12 379 970 1382 1819 1868 2003 2380 2747 2534 2572 2592 2551 2618 2496 2157 1848 1387 758 1262 1418 1539 1610 1342 1100 1221 1035 870 592 881 806 824
21 1 13 3 26 1 6 1 0 0 5 5 1241 2516 2157 1384 720 975 1084 1347 1499 1568 1901 2075 2319 2666 2662 2673 2655 2727 2777 2499 1826 1218 1017 1028 1951 1793 1612 1457 1465 1297 693 743 879 780 461 120 88
1 1 0 20 2 12 4 7 50 16 258 830 2950 2757 2355 2324 1696 1734 1790 1781 1833 1981 2154 2326 2584 2635 2756 2835 2880 2852 2575 1773 1024 745 888 1378 2161 1816 1629 1515 1351 1088 1011 1126 1191 959 685 634 379
137 174 73 65 2 0 3 20 7 708 1861 2985 2928 2879 2584 2677 2470 2567 2501 2487 2421 2537 2619 2627 2810 2777 2847 2949 3026 2565 1928 1108 782 428 411 2120 2110 1656 1565 1371 1198 1028 968 942 848 598 388 567 566
CIN
-167 -142 -149 -118 -77 -128 -89 -55 -32 -27 -29 -50 -27 -80 -69 -82 -77 -35 -153 -109 -93 -36 0 -1 -1 0 0 0 0 0 0 0 0 0 0 0 0 0 0 -1 0 0 0 0 0 0 0 0 0
-239 -154 -152 -94 -74 0 0 -91 -52 -61 -56 -98 -114 -82 -51 -47 -75 -102 -112 -111 -64 -37 -7 -14 0 0 0 0 0 0 0 -2 0 0 0 0 0 -3 0 0 -3 -1 0 0 -3 0 -2 0 0
-248 -190 -143 -82 -67 -37 -27 -81 -85 -86 -119 -85 -80 -61 -45 -44 -102 -94 -89 -75 -40 -27 -17 -5 0 -2 0 0 0 0 0 0 0 0 0 0 0 0 0 0 -2 0 0 0 -4 0 0 0 0
-287 -200 -145 -95 -49 -48 -94 -64 -122 -123 -124 -122 -106 -73 -68 -96 -98 -87 -92 -66 -17 -6 -12 0 0 0 0 0 0 0 0 0 0 0 0 0 0 0 0 0 0 0 0 -1 0 0 0 0 0
-350 -296 -142 -107 -51 -103 -55 -138 -119 -124 -146 -124 -151 -120 -72 -134 -131 -88 -82 -87 -68 -23 -13 0 0 0 0 0 0 0 0 0 0 0 0 0 0 0 0 0 0 0 0 0 0 0 0 0 0
-81 -341 -50 -38 0 0 -77 -150 -133 -137 -148 -129 -148 -149 -132 -146 -113 -80 -74 -73 -68 -49 -29 0 0 0 0 0 0 0 0 0 0 0 0 0 0 0 0 0 0 0 0 0 0 0 0 0 0
-154 -111 -36 -34 -18 0 -42 -158 -122 -101 -128 -133 -192 -170 -213 -175 -135 -76 -72 -71 -70 -47 -27 0 0 0 0 0 0 0 0 0 0 0 0 0 0 -1 0 0 0 0 0 0 0 0 0 0 0
-188 -146 -40 -72 0 0 0 -118 -166 -135 -112 -166 -214 -177 -197 -219 -203 -140 -91 -79 -67 -44 -30 -10 0 0 0 0 0 0 0 0 0 0 0 -2 -2 0 0 0 0 0 0 0 0 0 0 0 -1
-173 -62 -39 0 0 0 0 0 -131 -182 -127 -172 -202 -240 -271 -290 -291 -275 -200 -133 -76 -41 -22 -13 -1 0 0 0 0 0 0 0 0 0 0 0 0 0 0 0 -2 0 0 0 0 0 0 0 0
-124 -75 -48 -96 -57 0 0 0 -10 -146 -138 -141 -181 -280 -317 -305 -357 -347 -323 -262 -184 -120 -58 -22 -13 -5 0 0 0 0 0 0 0 0 -2 0 0 0 0 0 0 -2 0 0 0 0 0 -1 0
-145 -79 -74 -72 -102 -118 0 0 -5 -107 -107 -94 -98 -227 -337 -317 -346 -376 -360 -338 -274 -192 -117 -53 -19 -8 0 -1 0 0 0 0 0 0 0 0 0 0 0 0 0 0 -1 0 0 0 0 0 0
-105 -143 -111 -93 0 0 0 0 0 -108 -46 -121 -129 -213 -343 -336 -321 -345 -385 -375 -328 -272 -195 -139 -49 -12 -2 0 -7 -2 -2 0 0 0 0 0 0 0 0 0 0 0 0 0 0 0 0 0 0
-113 -110 -79 -108 0 0 0 0 0 -155 -82 -180 -231 -270 -326 -323 -327 -326 -329 -397 -364 -331 -263 -194 -113 -51 -19 -13 -28 -6 -8 -5 -4 0 0 -2 -3 -1 0 -2 0 -1 0 0 0 0 0 0 0
0 0 0 0 0 0 0 0 -204 -93 -139 -207 -335 -288 -291 -340 -317 -343 -375 -359 -379 -331 -307 -242 -155 -101 -58 -45 -5 -2 0 -3 0 -1 0 0 -28 -10 -3 -4 -4 -1 0 0 0 0 0 0 0
0 0 0 0 0 0 0 0 -9 -92 -179 -167 -256 -300 -310 -329 -343 -359 -376 -367 -347 -305 -275 -277 -203 -142 -107 -71 -31 -27 -32 -7 -20 -20 -15 -14 -16 -14 -1 0 -3 -10 -1 0 0 0 0 0 0
0 0 0 0 0 0 -3 0 0 0 -154 -173 -220 -288 -329 -384 -352 -350 -364 -367 -355 -294 -282 -272 -254 -200 -144 -106 -65 -55 -47 -26 -18 -29 -15 -22 -65 -27 -8 -13 -15 -7 -4 0 0 0 0 0 0
0 0 0 0 0 0 0 0 0 0 0 0 -214 -279 -282 -433 -385 -373 -352 -354 -325 -300 -253 -264 -252 -210 -168 -119 -97 -71 -46 -28 -19 -14 -25 -34 -28 -26 -21 -20 -19 -18 -9 -1 0 0 -1 0 0
0 0 0 0 0 0 0 0 0 0 0 0 -60 -259 -266 -391 -425 -401 -339 -339 -294 -292 -244 -216 -203 -156 -132 -118 -76 -69 -37 -22 -5 -5 -11 -20 -28 -41 -22 -26 -22 -20 -10 -4 -3 0 0 0 0
0 0 0 0 0 0 0 0 0 0 0 0 -13 -238 -294 -284 -398 -407 -357 -324 -317 -294 -239 -178 -154 -107 -117 -103 -89 -61 -54 -29 -15 -3 -17 -26 -22 -40 -39 -23 -30 -31 -31 -20 -4 0 0 0 0
0 0 0 0 0 0 0 0 0 0 0 0 0 -198 -287 -258 -347 -409 -435 -388 -358 -330 -234 -186 -151 -118 -122 -112 -66 -56 -41 -25 -26 -25 -28 -11 -12 -13 -24 -24 -30 -32 -33 -20 -8 0 0 0 0
0 0 0 0 0 0 0 0 0 0 0 0 0 -204 -227 -246 -298 -390 -445 -389 -381 -369 -297 -218 -169 -139 -117 -92 -75 -63 -52 -92 -99 -63 -39 -56 -45 -30 -12 -11 -17 -21 -15 -6 -8 -2 0 0 0
0 0 -54 -87 -77 0 0 0 0 0 0 0 0 -13 -180 -270 -311 -373 -440 -436 -352 -393 -398 -280 -213 -149 -154 -95 -86 -47 -76 -81 -82 -48 -47 -60 -91 -52 -48 -43 -44 -20 -7 -2 0 0 0 0 0
-30 -54 -71 -71 -36 -61 0 0 0 0 0 0 0 0 0 -132 -248 -316 -400 -412 -373 -357 -361 -370 -282 -182 -142 -127 -96 -93 -82 -49 -80 -70 -46 -33 -22 -6 -11 -15 -14 -21 -9 -4 0 0 0 0 0
-41 -66 -30 -29 -22 -20 0 0 0 0 0 0 0 0 0 0 -174 -259 -364 -449 -394 -320 -324 -383 -306 -242 -159 -156 -127 -93 -94 -89 -68 -68 -59 -73 -70 -6 0 -1 -4 -4 -2 -6 -1 0 0 0 0
-79 -62 -28 -4 -2 -7 0 0 0 0 0 0 0 0 0 0 0 0 -361 -424 -444 -396 -302 -409 -309 -245 -226 -188 -133 -129 -113 -71 -76 -41 -52 -84 -129 -32 -9 -26 -16 -24 -11 -9 0 0 0 0 0
-50 -19 -4 -5 -3 -4 0 0 0 0 0 0 0 0 0 0 0 0 -226 -459 -498 -433 -361 -394 -348 -265 -230 -195 -151 -122 -98 -86 -75 -36 -97 -62 -66 -67 -18 -33 -30 -15 -16 -17 -5 0 0 0 -1
-3 -2 0 -15 -16 -9 -2 0 0 0 0 0 -34 -161 -217 -167 -78 -193 -377 -454 -514 -438 -419 -399 -366 -274 -245 -202 -145 -118 -89 -85 -83 -64 -73 -63 -57 -38 -16 -4 -19 -20 -5 -9 -8 -4 0 0 0
-60 -11 -5 -15 -40 0 -44 -44 0 -12 -73 -73 -139 -192 -301 -431 -468 -444 -445 -505 -525 -458 -424 -388 -349 -287 -250 -195 -157 -118 -103 -100 -122 -151 -135 -82 -9 -9 -14 -8 0 -2 -29 -17 -6 -2 -15 -63 -66
-2 -29 -11 -27 -15 -35 -45 -41 -162 -50 -207 -195 -112 -183 -279 -321 -398 -448 -451 -496 -482 -430 -401 -367 -286 -256 -192 -165 -139 -112 -124 -173 -233 -223 -134 -50 -5 -16 -20 -2 -1 -4 -3 -2 0 -2 -12 -8 -22
-23 -16 -22 -26 -7 0 -1 -84 -282 -133 -129 -101 -111 -141 -177 -194 -247 -264 -373 -367 -372 -357 -362 -328 -271 -237 -207 -172 -126 -138 -98 -252 -286 -323 -248 -6 -2 -21 -15 -10 -3 -3 -2 -1 -1 -5 -11 -6 -4
Wind_Speed
25 23 20 26 30 nan nan nan 34 31 32 30 35 nan nan 21 nan 13 10 11 15 19 18 15 9 7 6 5 4 3 5 5 3 2 3 2 3 3 2 3 5 3 1 2 4 4 1 1 1
19 18 16 22 29 nan nan nan 33 32 30 30 32 33 28 22 20 15 16 17 20 20 20 18 14 8 7 6 5 4 2 3 3 2 2 2 2 5 1 1 2 3 2 3 5 1 1 2 3
20 14 12 14 23 nan nan nan 28 29 32 31 31 30 30 25 23 28 16 22 19 17 18 16 17 13 10 7 6 3 2 1 2 2 4 3 3 2 3 2 1 3 2 5 3 0 1 0 4
9 9 11 15 19 22 nan nan 24 28 33 30 29 26 28 25 30 25 26 26 22 17 15 14 14 15 13 8 4 3 2 2 1 2 3 4 5 4 5 3 3 5 3 6 0 2 1 2 2
1 2 5 nan nan nan nan 27 24 28 25 28 30 29 26 28 29 33 32 29 25 23 19 17 15 14 12 10 6 2 2 2 2 2 3 3 4 4 4 4 6 6 5 5 2 2 1 1 1
6 3 5 6 nan nan nan 30 27 28 24 24 27 30 26 28 34 38 35 34 27 24 22 18 17 13 13 12 8 5 1 3 5 4 4 5 5 5 6 6 6 7 5 4 2 2 4 4 1
9 10 8 1 nan nan nan 29 32 28 25 27 22 29 24 32 30 34 35 33 33 27 23 18 16 16 15 11 11 8 4 1 5 5 4 2 3 4 5 7 6 5 5 2 2 2 4 3 3
10 11 8 nan nan nan nan nan 29 30 26 20 23 24 25 32 33 33 32 33 33 30 27 22 16 14 10 10 10 9 8 4 2 5 6 6 7 5 3 7 9 7 5 3 1 3 3 4 5
14 9 6 nan nan nan nan nan nan 21 24 23 29 18 15 27 31 32 34 33 31 32 33 28 20 15 10 9 10 8 8 6 4 2 5 6 8 7 6 8 6 8 6 5 2 2 4 5 7
15 14 12 11 nan nan nan nan nan 19 24 23 22 15 18 25 30 33 36 38 39 41 39 37 33 19 16 8 8 7 6 3 2 6 6 8 10 12 11 10 6 8 8 5 5 4 3 4 7
22 18 17 12 5 nan nan nan nan nan 18 23 25 22 25 24 28 32 35 38 43 43 41 40 37 34 21 9 4 3 4 4 5 6 7 9 11 13 12 12 11 12 11 13 8 6 4 5 7
16 13 12 17 nan nan nan nan nan nan nan 10 15 21 26 27 28 31 34 35 37 40 42 42 37 36 34 21 4 1 1 0 1 3 4 8 10 11 10 12 10 11 17 13 12 11 9 6 7
15 12 nan nan nan nan nan nan nan nan nan 3 4 13 26 25 28 28 29 31 33 37 39 41 40 37 38 35 18 2 8 6 4 2 4 6 10 9 10 13 12 12 14 15 15 12 12 8 8
nan nan nan nan nan nan nan nan nan nan nan 13 21 16 22 28 28 28 29 31 31 33 36 38 41 36 37 39 26 18 9 8 9 4 5 3 6 5 9 14 13 12 10 13 15 15 14 11 9
nan nan nan nan nan nan nan nan nan nan 12 10 20 24 17 22 25 30 32 33 33 31 33 38 39 37 34 34 30 26 19 16 18 17 12 9 3 6 5 8 12 12 9 7 12 16 15 14 13
nan nan nan nan nan nan nan nan nan nan 16 8 10 6 12 19 24 26 25 30 30 29 33 36 36 35 32 28 25 22 23 24 17 14 16 11 6 3 7 8 8 11 11 11 11 12 16 17 15
nan nan nan nan nan nan nan nan nan nan nan nan nan 7 4 9 18 21 23 26 26 28 31 32 36 37 34 26 22 22 23 22 21 19 14 14 14 8 2 8 9 11 12 12 11 12 13 18 17
nan nan nan nan nan nan nan nan nan nan nan nan nan 17 2 9 21 14 18 23 24 24 26 29 31 35 37 28 20 20 18 17 17 19 20 17 11 11 7 4 9 13 12 12 13 11 13 16 19
nan nan nan nan nan nan nan nan nan nan nan nan nan 8 10 10 3 13 16 17 22 25 24 27 29 33 36 32 28 21 22 18 17 17 19 20 19 12 9 6 7 9 13 13 13 14 13 16 20
nan nan nan nan nan nan nan nan nan nan nan nan nan 17 14 13 2 9 12 16 18 23 19 27 30 32 35 36 30 23 18 16 15 18 18 19 20 19 14 9 8 9 10 12 13 15 18 19 20
nan nan nan nan nan nan nan nan nan nan nan nan nan 21 17 12 11 8 15 17 18 16 23 20 27 30 33 35 32 27 22 20 20 21 19 23 21 20 17 12 9 10 11 12 13 14 14 17 21
nan nan nan nan nan nan nan nan nan nan nan nan nan nan 20 13 10 9 14 15 22 23 27 26 20 30 30 37 31 31 25 24 21 18 25 25 24 17 15 11 12 12 14 12 13 16 16 17 18
nan 34 nan nan nan nan nan nan nan nan nan nan nan nan nan 21 18 12 10 14 21 25 28 27 25 28 32 34 30 26 23 21 26 24 25 28 19 13 6 7 10 13 15 15 13 14 16 18 19
nan nan nan 41 nan nan nan nan nan nan nan nan nan nan nan nan nan 16 9 11 19 26 30 28 24 27 31 33 28 27 27 28 24 31 30 27 17 8 2 3 9 13 15 15 14 13 13 16 17
nan nan nan nan nan nan nan nan nan nan nan nan nan nan nan nan nan nan 18 20 18 27 31 26 26 27 29 30 27 27 28 28 29 32 28 17 17 14 4 7 11 12 15 15 13 14 13 16 20
nan nan nan nan nan nan nan nan nan nan nan nan nan nan nan nan nan nan nan 23 18 25 29 26 26 26 28 26 26 25 27 24 24 33 30 15 6 10 9 14 15 16 16 16 16 16 15 16 18
nan nan nan nan nan nan nan nan nan nan nan nan nan 39 38 33 nan nan 28 28 19 27 26 26 27 26 26 23 23 24 25 23 20 27 26 26 19 11 10 11 12 14 15 18 16 14 16 17 16
nan nan nan nan nan nan nan nan nan nan nan nan 35 34 41 38 38 33 22 20 25 28 27 26 25 27 26 21 21 21 23 17 15 17 21 16 13 15 14 13 12 13 13 15 17 13 15 14 nan
nan nan nan nan nan nan nan nan nan nan 29 24 29 29 29 30 12 23 23 29 30 34 30 27 29 31 27 20 20 18 18 12 14 13 14 11 12 13 11 12 12 10 13 15 15 15 14 15 15
23 32 nan nan nan nan nan nan nan 36 35 29 31 28 22 17 14 23 29 33 28 26 30 33 35 30 33 29 22 15 17 10 9 12 16 13 11 11 11 11 9 12 9 13 13 13 14 15 15
Wind_Direction
40 44 59 70 63 nan nan nan 59 48 36 36 30 nan nan 54 nan 56 41 32 359 360 355 355 340 312 289 258 245 217 203 202 153 165 168 229 246 270 54 355 1 347 304 262 248 286 339 142 64
33 46 67 76 70 nan nan nan 60 54 38 26 33 33 39 46 41 20 2 20 2 0 359 358 348 338 308 276 261 248 237 204 157 137 108 207 234 248 87 21 358 319 265 230 220 233 235 145 107
45 61 85 78 75 nan nan nan 53 46 32 36 36 45 44 39 36 10 14 3 355 5 2 355 351 346 337 311 277 263 271 265 157 150 134 214 219 241 268 244 129 269 254 243 226 249 189 277 153
33 51 50 63 88 69 nan nan 48 36 52 44 34 36 38 53 23 21 358 4 3 7 7 355 356 350 350 338 312 273 257 212 164 174 197 181 197 178 175 209 210 237 257 255 218 168 299 204 214
116 15 23 nan nan nan nan 52 46 47 64 46 41 37 49 42 30 21 9 6 7 8 6 3 4 353 351 350 348 299 241 209 162 154 171 201 185 202 174 182 199 226 249 241 203 243 308 290 152
302 247 234 189 nan nan nan 57 44 54 59 51 54 31 40 38 21 21 20 19 13 13 7 2 2 353 345 359 356 339 293 200 178 174 195 183 182 199 193 195 203 213 237 243 170 237 250 233 219
254 243 240 208 nan nan nan 75 64 49 56 54 48 44 42 38 24 19 25 28 27 19 13 12 7 354 349 356 356 3 9 241 191 181 188 176 191 203 185 186 191 203 225 217 143 228 251 242 187
236 237 246 nan nan nan nan nan 79 65 50 48 28 56 41 28 20 22 24 23 26 26 16 13 11 360 351 344 352 0 8 359 204 196 210 187 199 215 222 196 174 196 210 208 79 199 214 182 175
261 266 252 nan nan nan nan nan nan 71 57 41 34 49 62 6 12 18 23 23 24 25 26 18 10 13 354 336 347 3 13 336 334 271 240 225 207 217 226 219 217 179 198 223 233 255 225 181 166
276 266 280 295 nan nan nan nan nan 45 61 59 39 21 351 5 10 18 22 23 27 24 24 27 23 18 15 353 324 317 326 327 312 269 255 217 222 220 212 211 217 209 192 193 211 243 235 198 177
272 276 283 298 21 nan nan nan nan nan 57 61 45 11 3 5 16 16 25 24 20 25 23 22 29 27 23 9 319 269 252 265 280 288 272 260 239 223 214 214 216 201 192 196 195 225 181 198 183
243 257 281 279 nan nan nan nan nan nan nan 32 47 7 1 6 20 25 22 25 20 19 23 18 20 27 24 23 279 149 97 75 258 315 307 252 246 240 217 213 212 196 198 204 197 196 199 196 184
273 204 nan nan nan nan nan nan nan nan nan 271 345 3 2 15 22 31 26 23 22 17 19 17 14 19 22 27 42 218 41 15 60 32 352 297 260 245 214 203 205 198 201 203 204 200 202 196 194
nan nan nan nan nan nan nan nan nan nan nan 338 327 358 27 16 18 19 24 24 28 20 12 11 15 13 21 37 45 57 74 77 45 29 29 17 252 217 214 206 200 200 197 200 208 205 205 201 204
nan nan nan nan nan nan nan nan nan nan 275 328 342 355 33 27 16 25 17 20 28 23 10 7 14 13 18 28 38 46 47 39 34 37 30 35 94 147 171 212 210 206 200 192 213 210 209 203 208
nan nan nan nan nan nan nan nan nan nan 269 262 329 19 7 26 19 18 14 16 24 28 15 6 6 11 13 17 22 30 33 36 35 37 30 64 30 84 168 197 212 232 240 221 214 221 214 211 213
nan nan nan nan nan nan nan nan nan nan nan nan nan 342 344 21 31 11 9 12 10 18 15 6 3 6 8 7 14 16 16 22 29 33 30 28 29 32 196 214 217 237 234 240 233 224 226 216 214
nan nan nan nan nan nan nan nan nan nan nan nan nan 304 327 4 30 11 10 357 358 10 12 4 356 358 358 2 357 0 1 10 14 19 21 20 11 12 6 266 239 242 242 239 232 232 230 218 218
nan nan nan nan nan nan nan nan nan nan nan nan nan 271 289 24 332 8 359 356 347 351 11 1 354 351 347 351 353 353 353 350 355 2 4 6 10 343 344 324 267 253 246 238 245 239 238 236 223
nan nan nan nan nan nan nan nan nan nan nan nan nan 262 299 281 276 338 344 339 350 346 2 350 354 345 345 341 344 340 339 326 331 344 347 358 360 358 327 318 304 289 256 248 242 246 241 237 238
nan nan nan nan nan nan nan nan nan nan nan nan nan 238 258 279 298 323 333 331 329 343 336 348 345 336 339 339 332 329 318 311 324 332 332 340 339 345 344 311 292 284 281 269 268 261 257 243 241
nan nan nan nan nan nan nan nan nan nan nan nan nan nan 251 278 298 324 347 327 336 316 297 309 333 330 337 334 334 338 341 338 334 321 317 320 325 323 335 312 289 284 269 282 272 266 249 250 249
nan 251 nan nan nan nan nan nan nan nan nan nan nan nan nan 261 273 293 333 345 327 292 306 324 330 328 333 334 336 332 337 328 311 324 328 315 314 324 333 311 302 299 279 265 256 263 257 250 250
nan nan nan 241 nan nan nan nan nan nan nan nan nan nan nan nan nan 268 285 303 303 302 302 315 322 324 329 330 337 330 337 334 328 330 324 299 260 295 323 297 302 296 286 272 261 254 255 247 249
nan nan nan nan nan nan nan nan nan nan nan nan nan nan nan nan nan nan 288 303 290 303 299 304 316 322 329 329 331 332 334 339 345 348 346 313 289 251 337 340 314 301 302 283 266 264 250 256 250
nan nan nan nan nan nan nan nan nan nan nan nan nan nan nan nan nan nan nan 292 290 292 298 299 311 314 321 325 325 328 335 342 356 7 350 333 311 75 21 6 352 334 322 306 289 271 264 256 257
nan nan nan nan nan nan nan nan nan nan nan nan nan 234 230 235 nan nan 279 286 281 271 285 288 297 306 316 322 318 326 335 351 359 14 14 30 37 41 39 25 2 353 344 334 331 302 272 270 264
nan nan nan nan nan nan nan nan nan nan nan nan 229 236 237 242 266 277 276 251 254 275 276 282 294 302 308 318 313 322 335 6 353 2 17 25 18 30 21 14 10 357 356 355 344 325 323 284 nan
nan nan nan nan nan nan nan nan nan nan 226 207 223 225 231 242 242 269 237 252 263 268 273 279 300 295 299 303 307 314 318 350 16 15 9 15 9 14 12 22 3 358 357 357 355 348 326 328 310
252 254 nan nan nan nan nan nan nan 227 236 225 202 190 207 206 201 213 233 255 253 259 276 291 300 305 305 297 298 292 297 326 353 8 19 8 0 355 355 358 353 339 346 355 350 353 336 327 314